User: anonymous   Login
Location: Unspecified
(0.0000°N, 0.0000°E)
Time: 15:48:36
(UTC+00:00)
Language:

UNISAT 6 - Orbit

View from above orbital plane
View from above orbital plane
View from above satellite
View from above satellite

Ground track
Ground track

The orbit data is extracted from the following two-line orbital elements,

1 40012U 14033C   18203.58584515 +.00000177 +00000-0 +33855-4 0  9996
2 40012 097.8037 078.5371 0059950 085.3648 275.4404 14.73840420219917
Epoch (UTC): 22 July 2018 14:03:37
Eccentricity: 0.0059950
inclination: 97.8037°
perigee height: 607 km
apogee height: 691 km
right ascension of ascending node: 78.5371°
argument of perigee: 85.3648°
revolutions per day: 14.73840420
mean anomaly at epoch: 275.4404°
orbit number at epoch: 21991

The dashed part of the orbit path shows where the satellite is in the earth's shadow,  

DLR